K5BOU Weather Reports


Display with metric or nautical units.
time (UTC)temp
F
wind
direction
speed
MPH
gust
MPH
rain 1hr
in
rain 24hr
in
rain mn
in
humidity
%
barometer
mb
20260831093826 75 183 0.0 0.0 0.00 0.00 0.00 99 1013.8
20260831093321 75 183 0.0 0.0 0.00 0.00 0.00 99 1013.6
20260831092818 75 183 0.0 0.0 0.00 0.00 0.00 99 1013.8
20260831092314 76 183 0.0 0.0 0.00 0.00 0.00 99 1013.8
20260831091814 76 178 0.0 0.0 0.00 0.00 0.00 99 1013.7
20260831091304 76 162 0.0 2.0 0.00 0.00 0.00 99 1013.8
20260831090759 75 161 0.0 0.0 0.00 0.00 0.00 99 1013.8
20260831090255 75 196 0.0 0.0 0.00 0.00 0.00 99 1013.7
20260831085751 75 196 0.0 0.0 0.00 0.00 0.00 99 1013.8
20260831085245 75 196 0.0 0.0 0.00 0.00 0.00 99 1013.8
20260831084740 75 196 0.0 0.0 0.00 0.00 0.00 99 1013.9
20260831084237 75 196 0.0 0.0 0.00 0.00 0.00 99 1014.0
20260831083732 75 196 0.0 0.0 0.00 0.00 0.00 99 1013.9
20260831083228 76 196 0.0 0.0 0.00 0.00 0.00 99 1013.9
20260831082726 76 196 0.0 0.0 0.00 0.00 0.00 99 1014.0
20260831082222 76 196 0.0 0.0 0.00 0.00 0.00 99 1014.0
20260831081717 76 196 0.0 0.0 0.00 0.00 0.00 99 1013.8
20260831081213 76 196 0.0 0.0 0.00 0.00 0.00 99 1013.6
20260831080703 76 196 0.0 0.0 0.00 0.00 0.00 99 1013.9
20260831080202 76 196 0.0 0.0 0.00 0.00 0.00 99 1013.8
20260831075658 76 196 0.0 0.0 0.00 0.00 0.00 99 1013.9
20260831075154 76 196 0.0 0.0 0.00 0.00 0.00 99 1013.8
20260831074652 76 196 0.0 0.0 0.00 0.00 0.00 99 1013.9
20260831074147 76 197 0.0 0.0 0.00 0.00 0.00 99 1013.9
20260831073642 76 196 0.0 0.0 0.00 0.00 0.00 99 1014.1
20260831073142 76 196 0.0 0.0 0.00 0.00 0.00 99 1014.0
20260831072637 76 196 0.0 0.0 0.00 0.00 0.00 99 1013.9
20260831072134 77 196 0.0 0.0 0.00 0.00 0.00 99 1013.8
20260831071632 76 196 0.0 0.0 0.00 0.00 0.00 99 1013.9
20260831071128 76 196 0.0 0.0 0.00 0.00 0.00 99 1014.1
20260831070627 77 196 0.0 0.0 0.00 0.00 0.00 99 1014.1
20260831070122 77 196 0.0 0.0 0.00 0.00 0.00 99 1013.9
20260831065620 77 196 0.0 0.0 0.00 0.00 0.00 99 1014.1
20260831065114 77 196 0.0 0.0 0.00 0.00 0.00 99 1014.1
20260831064614 77 196 0.0 0.0 0.00 0.00 0.00 99 1014.1
20260831064110 77 196 0.0 0.0 0.00 0.00 0.00 99 1014.4
20260831063605 77 196 0.0 0.0 0.00 0.00 0.00 99 1014.3
20260831063100 77 196 0.0 0.0 0.00 0.00 0.00 99 1014.3
20260831062555 77 196 0.0 0.0 0.00 0.00 0.00 99 1014.2
20260831062055 77 196 0.0 0.0 0.00 0.00 0.00 99 1014.4
20260831061553 77 196 0.0 0.0 0.00 0.00 0.00 99 1014.2
20260831061049 77 196 0.0 0.0 0.00 0.00 0.00 99 1014.2
20260831060544 77 197 0.0 0.0 0.00 0.00 0.00 99 1014.0
20260831060039 78 195 0.0 0.0 0.00 0.00 0.00 99 1014.5
20260831055533 78 179 0.0 0.0 0.00 0.00 0.00 99 1014.3
20260831055029 78 183 0.0 0.0 0.00 0.00 0.00 99 1014.4
20260831054529 77 202 0.0 0.0 0.00 0.00 0.00 99 1014.3
20260831054028 78 202 0.0 0.0 0.00 0.00 0.00 99 1014.1
20260831053526 77 202 0.0 0.0 0.00 0.00 0.00 99 1014.1
20260831053021 78 190 0.0 1.0 0.00 0.00 0.00 99 1014.4
20260831052520 78 185 0.0 0.0 0.00 0.00 0.00 99 1014.2
20260831052015 78 185 0.0 0.0 0.00 0.00 0.00 98 1014.2
20260831051513 78 185 0.0 0.0 0.00 0.00 0.00 98 1014.1
20260831051013 78 185 0.0 0.0 0.00 0.00 0.00 97 1014.0
20260831050512 79 185 0.0 0.0 0.00 0.00 0.00 97 1013.7
20260831050011 79 185 0.0 0.0 0.00 0.00 0.00 96 1013.9
20260831045510 79 185 0.0 0.0 0.00 0.00 0.00 96 1014.2
20260831045006 80 185 0.0 0.0 0.00 0.00 0.00 96 1014.1
20260831044501 80 185 0.0 0.0 0.00 0.00 0.00 95 1014.1
20260831043956 80 182 0.0 0.0 0.00 0.00 0.00 95 1014.0
20260831043456 80 184 0.0 1.0 0.00 0.00 0.00 95 1013.8
20260831042951 80 200 0.0 1.0 0.00 0.00 0.00 94 1013.8
20260831042451 80 182 0.0 1.0 0.00 0.00 0.00 94 1014.0
20260831041951 80 187 1.0 3.0 0.00 0.00 0.00 94 1013.7
20260831041445 80 189 0.0 0.0 0.00 0.00 0.00 95 1013.7
20260831040940 80 188 0.0 0.0 0.00 0.00 0.00 94 1013.8
20260831040435 80 199 0.0 1.0 0.00 0.00 0.00 94 1013.7
20260831035932 80 188 0.0 0.0 0.00 0.00 0.00 94 1013.7
20260831035432 80 195 0.0 0.0 0.00 0.00 0.00 93 1013.6
20260831034927 80 195 0.0 0.0 0.00 0.00 0.00 93 1013.7
20260831034422 81 194 0.0 1.0 0.00 0.00 0.00 92 1013.6
20260831033917 81 188 0.0 0.0 0.00 0.00 0.00 92 1013.5
20260831033413 81 190 0.0 0.0 0.00 0.00 0.00 91 1013.5
20260831032908 81 187 0.0 0.0 0.00 0.00 0.00 91 1013.5
20260831032402 82 200 0.0 0.0 0.00 0.00 0.00 89 1013.3
20260831031857 82 182 0.0 2.0 0.00 0.00 0.00 89 1013.5
20260831031356 82 184 0.0 2.0 0.00 0.00 0.00 88 1013.4
20260831030851 82 188 1.0 2.0 0.00 0.00 0.00 88 1013.3
20260831030350 83 199 0.0 1.0 0.00 0.00 0.00 88 1013.1
20260831025844 83 200 1.0 1.0 0.00 0.00 0.00 87 1013.3
20260831025343 83 166 3.0 3.0 0.00 0.00 0.00 86 1012.8
20260831024839 84 183 0.0 2.0 0.00 0.00 0.00 85 1012.8
20260831024338 84 142 0.0 3.0 0.00 0.00 0.00 85 1012.8
20260831023838 84 176 0.0 3.0 0.00 0.00 0.00 84 1012.9
20260831023336 84 179 2.0 3.0 0.00 0.00 0.00 84 1012.7
20260831022831 84 166 2.0 6.0 0.00 0.00 0.00 83 1012.5
20260831022330 85 178 0.0 3.0 0.00 0.00 0.00 83 1012.4
20260831021825 85 164 1.0 5.0 0.00 0.00 0.00 82 1012.5
20260831021325 85 170 3.0 5.0 0.00 0.00 0.00 81 1012.3
20260831020821 85 184 1.0 7.0 0.00 0.00 0.00 81 1012.3
20260831020321 86 181 3.0 5.0 0.00 0.00 0.00 81 1012.1
20260831015816 86 126 3.0 7.0 0.00 0.00 0.00 80 1012.0
20260831015312 86 140 3.0 3.0 0.00 0.00 0.00 80 1012.0
20260831014812 86 179 2.0 3.0 0.00 0.00 0.00 79 1011.9
20260831014306 86 186 1.0 5.0 0.00 0.00 0.00 78 1012.1
20260831013803 87 145 2.0 3.0 0.00 0.00 0.00 78 1012.0
20260831013302 87 184 0.0 1.0 0.00 0.00 0.00 77 1011.9
20260831012757 87 188 2.0 8.0 0.00 0.00 0.00 76 1012.1
20260831012253 87 177 0.0 5.0 0.00 0.00 0.00 75 1012.0
20260831011751 87 156 2.0 6.0 0.00 0.00 0.00 75 1011.8
20260831011247 88 141 2.0 5.0 0.00 0.00 0.00 74 1011.9
20260831010743 88 177 0.0 2.0 0.00 0.00 0.00 74 1011.9
20260831010237 88 156 3.0 5.0 0.00 0.00 0.00 73 1011.9
20260831005733 89 168 2.0 5.0 0.00 0.00 0.00 72 1011.8
20260831005228 89 181 3.0 7.0 0.00 0.00 0.00 72 1011.7
20260831004723 89 164 6.0 9.0 0.00 0.00 0.00 71 1011.8
20260831004220 89 159 4.0 6.0 0.00 0.00 0.00 70 1011.7
20260831003715 90 148 3.0 7.0 0.00 0.00 0.00 70 1011.7
20260831003211 90 166 3.0 7.0 0.00 0.00 0.00 69 1011.7
20260831002709 90 204 2.0 6.0 0.00 0.00 0.00 68 1011.4
20260831002204 91 161 3.0 3.0 0.00 0.00 0.00 67 1011.3
20260831001700 91 153 2.0 5.0 0.00 0.00 0.00 66 1011.4
20260831001155 92 159 2.0 6.0 0.00 0.00 0.00 66 1011.4
20260831000652 92 174 4.0 7.0 0.00 0.00 0.00 65 1011.4
20260831000152 92 151 5.0 8.0 0.00 0.00 0.00 65 1011.6
20260830235650 92 160 1.0 3.0 0.00 0.00 0.00 65 1011.7
20260830235145 92 187 4.0 8.0 0.00 0.00 0.00 65 1011.5
20260830234640 92 176 2.0 3.0 0.00 0.00 0.00 65 1011.5
20260830234131 92 165 3.0 5.0 0.00 0.00 0.00 65 1011.6
20260830233626 92 199 3.0 7.0 0.00 0.00 0.00 65 1011.3
20260830233121 93 187 0.0 2.0 0.00 0.00 0.00 65 1011.6
20260830232617 93 185 1.0 7.0 0.00 0.00 0.00 65 1011.5
20260830232114 93 140 2.0 5.0 0.00 0.00 0.00 64 1011.3
20260830231609 94 180 0.0 8.0 0.00 0.00 0.00 63 1011.6
20260830231108 94 177 5.0 9.0 0.00 0.00 0.00 62 1011.5
20260830230604 96 153 1.0 8.0 0.00 0.00 0.00 61 1011.2
20260830230058 96 27 2.0 7.0 0.00 0.00 0.00 60 1011.3
20260830225553 97 174 3.0 6.0 0.00 0.00 0.00 59 1011.3
20260830225048 97 207 1.0 3.0 0.00 0.00 0.00 56 1011.1
20260830224546 96 165 2.0 3.0 0.00 0.00 0.00 59 1011.4
20260830224043 96 163 4.0 6.0 0.00 0.00 0.00 57 1011.2
20260830223540 96 226 5.0 8.0 0.00 0.00 0.00 57 1011.4
20260830223039 96 171 4.0 6.0 0.00 0.00 0.00 57 1011.3
20260830222534 95 163 1.0 5.0 0.00 0.00 0.00 57 1011.5
20260830222030 95 157 3.0 7.0 0.00 0.00 0.00 57 1011.6
20260830221526 95 164 2.0 3.0 0.00 0.00 0.00 57 1011.5
20260830221022 95 146 3.0 6.0 0.00 0.00 0.00 56 1011.5
20260830220521 96 171 5.0 8.0 0.00 0.00 0.00 55 1011.4
20260830220020 96 167 3.0 8.0 0.00 0.00 0.00 55 1011.3
20260830215514 97 137 5.0 6.0 0.00 0.00 0.00 53 1011.4
20260830215009 98 171 3.0 6.0 0.00 0.00 0.00 52 1011.4
20260830214504 97 164 3.0 5.0 0.00 0.00 0.00 52 1011.4
20260830213958 98 187 1.0 5.0 0.00 0.00 0.00 54 1011.6
20260830213453 98 184 3.0 7.0 0.00 0.00 0.00 53 1011.5
20260830212949 97 174 3.0 7.0 0.00 0.00 0.00 52 1011.5
20260830212444 97 154 4.0 6.0 0.00 0.00 0.00 53 1011.9
20260830211943 97 123 4.0 8.0 0.00 0.00 0.00 51 1011.9
20260830211438 98 207 1.0 6.0 0.00 0.00 0.00 52 1011.8
20260830210934 98 160 3.0 8.0 0.00 0.00 0.00 51 1012.2
20260830210434 98 118 0.0 9.0 0.00 0.00 0.00 53 1012.3
20260830205931 98 148 2.0 9.0 0.00 0.00 0.00 54 1012.1
20260830205430 98 166 2.0 5.0 0.00 0.00 0.00 54 1012.1
20260830204926 98 215 0.0 5.0 0.00 0.00 0.00 51 1012.2
20260830204425 97 173 1.0 2.0 0.00 0.00 0.00 54 1012.3
20260830203920 98 137 2.0 5.0 0.00 0.00 0.00 53 1012.4
20260830203417 99 183 3.0 6.0 0.00 0.00 0.00 54 1012.3
20260830202916 99 182 1.0 2.0 0.00 0.00 0.00 55 1012.4
20260830202411 98 175 3.0 8.0 0.00 0.00 0.00 53 1012.5
20260830201907 99 126 2.0 3.0 0.00 0.00 0.00 51 1012.6
20260830201400 97 204 1.0 2.0 0.00 0.00 0.00 53 1012.7
20260830200856 97 213 3.0 6.0 0.00 0.00 0.00 53 1012.9
20260830200355 97 84 1.0 5.0 0.00 0.00 0.00 50 1012.8
20260830195851 96 199 0.0 3.0 0.00 0.00 0.00 54 1012.9
20260830195350 97 201 0.0 1.0 0.00 0.00 0.00 52 1013.1
20260830194849 96 34 3.0 5.0 0.00 0.00 0.00 55 1013.0
20260830194342 97 161 0.0 2.0 0.00 0.00 0.00 55 1013.2
20260830193837 98 225 1.0 5.0 0.00 0.00 0.00 57 1013.1
20260830193331 97 119 0.0 7.0 0.00 0.00 0.00 56 1013.4
20260830192827 97 207 1.0 6.0 0.00 0.00 0.00 56 1013.4
20260830192327 98 164 2.0 2.0 0.00 0.00 0.00 57 1013.4
20260830191823 97 148 3.0 5.0 0.00 0.00 0.00 55 1013.7
20260830191322 97 176 0.0 2.0 0.00 0.00 0.00 57 1013.5
20260830190819 96 186 0.0 0.0 0.00 0.00 0.00 58 1013.8
20260830190318 96 198 1.0 6.0 0.00 0.00 0.00 60 1013.8
20260830185817 96 104 3.0 5.0 0.00 0.00 0.00 58 1013.9
20260830185312 98 196 2.0 3.0 0.00 0.00 0.00 56 1014.0
20260830184807 96 177 1.0 2.0 0.00 0.00 0.00 55 1014.3
20260830184306 96 201 2.0 3.0 0.00 0.00 0.00 57 1014.0
20260830183802 95 204 0.0 2.0 0.00 0.00 0.00 61 1014.1
20260830183301 95 136 1.0 6.0 0.00 0.00 0.00 63 1014.3
20260830182757 96 136 2.0 3.0 0.00 0.00 0.00 59 1014.1
20260830182253 93 170 0.0 5.0 0.00 0.00 0.00 63 1014.5
20260830181749 93 199 1.0 3.0 0.00 0.00 0.00 62 1014.3
20260830181244 94 178 1.0 2.0 0.00 0.00 0.00 62 1014.5
20260830180743 95 170 5.0 6.0 0.00 0.00 0.00 60 1014.8
20260830180237 95 188 2.0 3.0 0.00 0.00 0.00 60 1014.6
20260830175731 94 115 0.0 2.0 0.00 0.00 0.00 63 1014.8
20260830175227 93 178 0.0 1.0 0.00 0.00 0.00 67 1014.9
20260830174721 92 202 2.0 2.0 0.00 0.00 0.00 67 1014.8
20260830174217 93 188 0.0 2.0 0.00 0.00 0.00 66 1014.9
20260830173717 93 185 0.0 1.0 0.00 0.00 0.00 67 1015.1
20260830173212 94 199 1.0 2.0 0.00 0.00 0.00 65 1015.1
20260830172709 93 180 0.0 1.0 0.00 0.00 0.00 68 1015.2
20260830172205 90 205 0.0 1.0 0.00 0.00 0.00 70 1015.4
20260830171700 89 290 1.0 2.0 0.00 0.00 0.00 73 1015.2
20260830171154 89 178 0.0 0.0 0.00 0.00 0.00 73 1015.2
20260830170649 89 339 3.0 3.0 0.00 0.00 0.00 72 1015.4
20260830170149 89 203 0.0 1.0 0.00 0.00 0.00 73 1015.4
20260830165643 88 229 1.0 1.0 0.00 0.00 0.00 76 1015.6
20260830165139 89 226 2.0 2.0 0.00 0.00 0.00 74 1015.5
20260830164635 90 192 1.0 2.0 0.00 0.00 0.00 74 1015.7
20260830164131 88 195 0.0 1.0 0.00 0.00 0.00 75 1015.7
20260830163628 88 195 0.0 1.0 0.00 0.00 0.00 75 1015.6
20260830163128 90 192 1.0 1.0 0.00 0.00 0.00 74 1015.6
20260830162623 90 188 0.0 0.0 0.00 0.00 0.00 73 1015.6
20260830162119 88 217 1.0 1.0 0.00 0.00 0.00 73 1015.6
20260830161619 89 186 1.0 3.0 0.00 0.00 0.00 75 1015.9
20260830161114 89 187 2.0 3.0 0.00 0.00 0.00 76 1015.8
20260830160610 91 228 3.0 5.0 0.00 0.00 0.00 70 1015.7
20260830160110 91 156 0.0 2.0 0.00 0.00 0.00 75 1015.9
20260830155606 91 212 3.0 3.0 0.00 0.00 0.00 74 1015.7
20260830155101 91 205 0.0 2.0 0.00 0.00 0.00 74 1015.8
20260830154556 89 151 0.0 1.0 0.00 0.00 0.00 79 1015.8
20260830154053 90 153 2.0 5.0 0.00 0.00 0.00 78 1015.8
20260830153549 89 184 0.0 3.0 0.00 0.00 0.00 81 1015.6
20260830153048 89 173 1.0 1.0 0.00 0.00 0.00 79 1015.6
20260830152543 88 178 0.0 3.0 0.00 0.00 0.00 81 1015.6
20260830152043 86 192 0.0 1.0 0.00 0.00 0.00 85 1015.6
20260830151542 85 206 0.0 1.0 0.00 0.00 0.00 87 1015.6
20260830151037 86 183 1.0 5.0 0.00 0.00 0.00 88 1015.7
20260830150536 87 209 1.0 2.0 0.00 0.00 0.00 86 1015.5
20260830150032 88 180 0.0 0.0 0.00 0.00 0.00 85 1015.5
20260830145532 87 185 1.0 2.0 0.00 0.00 0.00 87 1015.7
20260830145027 85 194 0.0 0.0 0.00 0.00 0.00 90 1015.7
20260830144523 85 209 0.0 0.0 0.00 0.00 0.00 88 1015.8
20260830144018 86 195 0.0 0.0 0.00 0.00 0.00 88 1015.8
20260830143514 85 177 0.0 2.0 0.00 0.00 0.00 90 1015.7
20260830143012 86 206 1.0 2.0 0.00 0.00 0.00 88 1015.7
20260830142508 86 165 2.0 2.0 0.00 0.00 0.00 88 1015.8
20260830142003 86 155 2.0 3.0 0.00 0.00 0.00 89 1015.7
20260830141457 85 173 0.0 0.0 0.00 0.00 0.00 91 1015.7
20260830140952 85 188 0.0 0.0 0.00 0.00 0.00 90 1015.5
20260830140447 85 178 0.0 0.0 0.00 0.00 0.00 90 1015.7
20260830135946 86 170 0.0 0.0 0.00 0.00 0.00 89 1015.8
20260830135442 85 175 0.0 0.0 0.00 0.00 0.00 91 1015.9
20260830134937 84 175 0.0 0.0 0.00 0.00 0.00 92 1015.7
20260830134433 84 178 0.0 0.0 0.00 0.00 0.00 95 1015.6
20260830133928 83 173 0.0 0.0 0.00 0.00 0.00 98 1015.5
20260830133424 81 173 0.0 0.0 0.00 0.00 0.00 99 1015.5
20260830132919 80 173 0.0 0.0 0.00 0.00 0.00 99 1015.5
20260830132415 80 177 0.0 0.0 0.00 0.00 0.00 99 1015.6
20260830131914 79 173 0.0 0.0 0.00 0.00 0.00 99 1015.6
20260830131414 79 186 0.0 0.0 0.00 0.00 0.00 99 1015.6
20260830130908 78 187 0.0 0.0 0.00 0.00 0.00 99 1015.3
20260830130405 78 186 0.0 0.0 0.00 0.00 0.00 99 1015.4
20260830125903 78 186 0.0 0.0 0.00 0.00 0.00 99 1015.6
20260830125359 78 197 0.0 0.0 0.00 0.00 0.00 99 1015.3
20260830124856 76 197 0.0 0.0 0.00 0.00 0.00 99 1015.1
20260830124351 75 197 0.0 0.0 0.00 0.00 0.00 99 1015.2
20260830123848 75 198 0.0 0.0 0.00 0.00 0.00 99 1015.1
20260830123344 74 198 0.0 0.0 0.00 0.00 0.00 99 1015.1
20260830122842 74 198 0.0 0.0 0.00 0.00 0.00 99 1015.0
20260830122337 74 198 0.0 0.0 0.00 0.00 0.00 99 1015.0
20260830121832 74 198 0.0 0.0 0.00 0.00 0.00 99 1015.0
20260830121331 74 198 0.0 0.0 0.00 0.00 0.00 99 1015.1
20260830120826 74 198 0.0 0.0 0.00 0.00 0.00 99 1015.0
20260830120322 74 198 0.0 0.0 0.00 0.00 0.00 99 1014.9
20260830115818 74 198 0.0 0.0 0.00 0.00 0.00 99 1015.0
20260830115315 74 198 0.0 0.0 0.00 0.00 0.00 99 1015.0
20260830114810 74 198 0.0 0.0 0.00 0.00 0.00 99 1015.0
20260830114306 74 198 0.0 0.0 0.00 0.00 0.00 99 1015.0
20260830113800 73 198 0.0 0.0 0.00 0.00 0.00 99 1014.9
20260830113256 74 198 0.0 0.0 0.00 0.00 0.00 99 1015.0
20260830112752 74 198 0.0 0.0 0.00 0.00 0.00 99 1014.8
20260830112248 74 198 0.0 0.0 0.00 0.00 0.00 99 1014.6
20260830111743 74 198 0.0 0.0 0.00 0.00 0.00 99 1014.8
20260830111238 74 198 0.0 0.0 0.00 0.00 0.00 99 1014.6
20260830110738 73 198 0.0 0.0 0.00 0.00 0.00 99 1014.6
20260830110235 74 198 0.0 0.0 0.00 0.00 0.00 99 1014.7
20260830105733 74 198 0.0 0.0 0.00 0.00 0.00 99 1014.6
20260830105230 74 198 0.0 0.0 0.00 0.00 0.00 99 1014.6
20260830104726 74 198 0.0 0.0 0.00 0.00 0.00 99 1014.8
20260830104223 74 198 0.0 0.0 0.00 0.00 0.00 99 1014.6
20260830103722 74 198 0.0 0.0 0.00 0.00 0.00 99 1014.6
20260830103217 74 198 0.0 0.0 0.00 0.00 0.00 99 1014.7
20260830102715 74 198 0.0 0.0 0.00 0.00 0.00 99 1014.7
20260830102212 74 198 0.0 0.0 0.00 0.00 0.00 99 1014.5
20260830101708 74 198 0.0 0.0 0.00 0.00 0.00 99 1014.2
20260830101203 74 198 0.0 0.0 0.00 0.00 0.00 99 1014.4
20260830100657 74 198 0.0 0.0 0.00 0.00 0.00 99 1014.4
20260830100157 74 198 0.0 0.0 0.00 0.00 0.00 99 1014.3
20260830095655 74 198 0.0 0.0 0.00 0.00 0.00 99 1014.5
20260830095152 74 198 0.0 0.0 0.00 0.00 0.00 99 1014.4
20260830094648 75 198 0.0 0.0 0.00 0.00 0.00 99 1014.5